Nagpur Sonegaon, India

10:02 AM IST on November 20, 2017 (GMT +0530)
Nagpur

Weather History for VANP - January, 2013

Change the Weather History Date:

Thursday, January 3, 2013

  Actual Average Record
Temperature  
Mean Temperature 71 °F -  
Max Temperature 84 °F 84 °F - ()
Min Temperature 58 °F 55 °F - ()
Cooling Degree Days 6    
Growing Degree Days 21 (Base 50)    
Moisture  
Dew Point 57 °F    
Average Humidity 62    
Maximum Humidity 87    
Minimum Humidity 34    
Precipitation  
Precipitation 0.00 in 0.02 in - ()
Sea Level Pressure  
Sea Level Pressure 29.95 in    
Wind  
Wind Speed 3 mph ()    
Max Wind Speed 6 mph    
Max Gust Speed -    
Visibility 1.9 miles    
Events      
T = Trace of Precipitation, MM = Missing Value Source: Averaged Metar Reports

Daily Weather History Graph

Daily Weather History Graph

Search for Another Location

Airport or City:

Trip Planner

Search our weather history database for the weather conditions in past years. The results will help you decide how hot, cold, wet, or windy it might be!

Date:

Astronomy

Jan. 03, 2013 Rise Set
Actual Time 6:51 AM IST 5:45 PM IST
Civil Twilight 6:27 AM IST 6:09 PM IST
Nautical Twilight 5:59 AM IST 6:36 PM IST
Astronomical Twilight 5:32 AM IST 7:03 PM IST
Moon 11:01 PM IST (1/3) 10:33 AM IST (1/3)
Length of Visible Light 11h 41m
Length of Day
10h 53m
Waning Gibbous, 70% of the Moon is Illuminated
Jan 3
Waning Gibbous
Jan 5
Last Quarter
Jan 12
New
Jan 19
First Quarter
Jan 27
Full

Hourly Weather History & Observations

Time (IST) Temp. Heat Index Dew Point Humidity Pressure Visibility Wind Dir Wind Speed Gust Speed Precip Events Conditions
12:10 AM 71.6 °F - 64.4 °F 78% 29.92 in 2.5 mi North 3.5 mph - N/A   Haze
1:10 AM 69.8 °F - 60.8 °F 73% 29.92 in 2.5 mi NE 2.3 mph - N/A   Haze
2:10 AM 68.0 °F - 59.0 °F 73% 29.92 in 2.5 mi Calm Calm - N/A   Haze
2:30 AM 64 °F - 61 °F 87% 29.93 in 1 mi North 4.6 mph - -   Haze
3:10 AM 66.2 °F - 57.2 °F 73% 29.95 in 2.5 mi NNE 4.6 mph - N/A   Haze
4:10 AM 64.4 °F - 57.2 °F 77% 29.95 in 2.5 mi NNE 2.3 mph - N/A   Haze
5:10 AM 62.6 °F - 51.8 °F 68% 29.95 in 2.5 mi NNE 4.6 mph - N/A   Haze
5:30 AM 61 °F - 56 °F 79% 29.94 in 1 mi NNE 4.6 mph - -   Haze
6:10 AM 62.6 °F - 51.8 °F 68% 29.95 in 2.5 mi NNE 4.6 mph - N/A   Haze
8:30 AM 62 °F - 55 °F 71% 30.02 in 1 mi North 4.6 mph - -   Mist
9:10 AM 64.4 °F - 53.6 °F 68% 30.04 in 0.7 mi North 5.8 mph - N/A   Mist
10:10 AM 68.0 °F - 53.6 °F 60% 30.04 in 1.2 mi North 5.8 mph - N/A   Haze
11:30 AM 76 °F - 53 °F 34% 29.99 in 6 mi South 1.2 mph - -  
12:10 PM 77.0 °F - 55.4 °F 47% 30.01 in 1.6 mi NNE 4.6 mph - N/A   Haze
2:10 PM 82.4 °F 81.7 °F 55.4 °F 39% 29.92 in 1.9 mi East 3.5 mph - N/A   Haze
2:30 PM 81 °F - 62 °F 43% 29.88 in 1 mi NNW 2.3 mph - -   Haze
3:10 PM 84.2 °F 83.0 °F 55.4 °F 37% 29.92 in 1.9 mi NE 2.3 mph - N/A   Haze
4:10 PM 82.4 °F 81.7 °F 55.4 °F 39% 29.89 in 1.9 mi ENE 3.5 mph - N/A   Haze
5:10 PM 80.6 °F 81.8 °F 62.6 °F 54% 29.89 in 1.6 mi Calm Calm - N/A   Haze
6:10 PM 73.4 °F - 59.0 °F 61% 29.92 in 1.2 mi ESE 2.3 mph - N/A   Haze
7:10 PM 71.6 °F - 59.0 °F 64% 29.95 in 1.2 mi Calm Calm - N/A   Haze
8:10 PM 69.8 °F - 57.2 °F 64% 29.95 in 1.9 mi Calm Calm - N/A   Haze
8:30 PM 81 °F - 60 °F 38% 29.96 in 2 mi Calm Calm - -   Haze
9:10 PM 68.0 °F - 55.4 °F 64% 29.98 in 1.9 mi Calm Calm - N/A   Haze
10:10 PM 68.0 °F - 55.4 °F 64% 29.98 in 1.9 mi NE 2.3 mph - N/A   Haze
11:10 PM 66.2 °F - 53.6 °F 64% 30.01 in 1.9 mi NNE 2.3 mph - N/A   Haze
11:30 PM 63 °F - 58 °F 78% 29.98 in 1 mi NE 3.5 mph - -   Haze